TITAN 3C TRANSTAGE DEB, 1859

Orbit data source: Space-Track

TITAN 3C TRANSTAGE DEB, 1859 is space debris in LEO originally from a launch on Fri, 15 Oct 1965 UTC launched from the Air Force Eastern Test Range (AFETR). Debris objects in space refer to the collection of defunct objects orbiting the Earth. Examples of debris include non-operational satellites, rocket bodies, and fragments generated from explosions, collisions, or faulty payload assembly.

Loading next visibility...
Identifier
1859, 1965-082ES
Orbit
LEO
Country
Flag of USUS
Related business
Manufacturer
Unknown
Mission
Spacecraft
Bus & Motor
Unknown
Mass
Unknown
Launch date (UTC)
1965-10-15 (61 years ago)
Launch vehicle
Unknown
Launch site
Air Force Eastern Test Range (AFETR)
Object type
Payload
Rocket body
Debris
Shape & HBR
Unknown shape, 0.3 m
Radar Cross Section
Medium (>0.1 m² and <1 m²)

Expand to show TLE details & history
Last TLE update: 19 hours ago

TLE from 19 hours ago
0 TITAN 3C TRANSTAGE DEB
1 01859U 65082ES  26125.50434188  .00000651  00000-0  15531-3 0  9993
2 01859  32.1269  53.1177 0066708 352.0445   7.9136 14.49104106180872
Epoch: 2026-05-05T12:06Z
TLE epoch observation values (Epoch: 2026-05-05T12:06:15.138Z)
Latitude
-0.00001°
Longitude
8.17638°
Altitude
680.296 km
Speed
7.543 km/s
True Right ascension
03h 32m 28s
True Declination
0° 00' 00"
Sunlit
Object was in daylight at epoch
Visualization orbit readout
Latitude
Unknown
Longitude
Unknown
Altitude
Unknown
Speed
Unknown
Apparent Right ascension
Unknown
Apparent Declination
Unknown
Sunlit
N/A
Visualization observer readout
Local Sidereal Time
14:43:35
Azimuth
Unknown
Elevation
Unknown
Doppler factor
Unknown
Orbital elements
Apogee altitude
779.582 km
Perigee altitude
684.719 km
Semi-major axis
7,110.287 km
Eccentricity
0.00667
Inclination
32.1269°
RAAN
53.1177°
Arg. of periapsis
352.0445°
True anomaly
8.01972°
Mean anomaly
7.9136°
Eccentric anomaly
7.96657°
Mean motion
3.62003 °/min
Orbital period
99.45 mins
BSTAR
0.00015531

Documentation

Showing up to 5 results
|